Location: *
(47.6569°N, 7.4256°E)
Time: 19:22:11
(UTC+00:00)

Cosmos 676 Rocket - Pass Details

Date: 14 December 2019
Orbit: 754 x 785 km, 74.0° (Epoch: 26 January)

Event Time Altitude Azimuth Distance (km) Brightness Sun altitude
Rises 17:56:47 0° 204° (SSW) 3,194 7.7 -22.2°
Reaches altitude 10° 17:59:08 10° 205° (SSW) 2,273 6.9 -22.5°
Maximum altitude 18:04:18 80° 293° (WNW) 773 4.0 -23.4°
Enters shadow 18:06:22 38° 15° (NNE) 1,157 4.7 -23.7°
